Wind_Speed
11 12 11 11 13 14 14 12 10 9 8 7 6 6 6 6 5 4 4 3 4 4 5 5 4 4 4 4 4 6 11 14 12 13 14 14 13 11 10 8 9 10 13
11 10 11 13 14 14 13 12 11 9 8 7 6 6 6 5 5 6 6 6 6 7 6 5 4 5 7 9 12 15 17 19 20 17 17 15 15 13 11 12 12 12 14
10 12 12 13 14 14 14 12 10 9 9 7 6 7 7 7 7 7 7 8 8 6 6 7 10 13 16 18 20 20 17 14 14 14 15 15 14 14 14 15 16 17 18
10 11 12 12 12 12 11 10 8 8 7 8 7 6 8 8 8 9 9 8 8 9 11 14 16 17 14 12 12 12 11 12 13 13 14 14 15 15 17 18 19 20 21
11 11 12 12 11 10 9 8 7 7 8 8 9 9 9 9 9 9 11 12 14 15 16 16 9 9 10 11 11 11 13 14 14 14 14 15 16 17 19 19 20 20 20
13 12 12 11 11 9 9 9 9 9 11 12 12 12 13 13 14 15 17 18 18 17 10 8 9 10 10 10 9 9 9 10 11 12 14 15 17 18 18 17 18 20 20
17 15 14 13 13 13 12 13 12 12 13 13 14 14 14 14 14 13 12 10 8 7 7 8 8 9 10 10 10 10 10 9 10 10 11 12 14 16 18 19 20 21 22
19 19 17 17 17 15 14 12 12 12 13 12 13 13 12 10 9 8 7 7 8 9 8 8 9 11 12 12 12 12 13 13 13 13 14 15 16 18 19 22 23 25 26
17 20 19 18 17 16 14 12 12 11 12 13 13 11 11 11 11 9 9 9 9 9 10 10 11 12 11 11 12 13 14 15 15 16 18 19 21 22 24 26 28 30 32
17 17 20 20 19 16 15 13 12 11 10 11 11 12 13 12 12 11 11 10 11 11 10 9 8 9 10 12 13 15 17 19 19 20 21 23 25 26 29 31 33 34 36
20 20 20 21 20 18 17 15 13 12 11 11 11 11 13 14 13 13 12 12 11 9 7 8 10 13 14 16 17 18 20 21 22 24 26 28 30 32 34 37 38 40 42
25 23 23 23 22 21 20 18 16 14 13 13 13 13 14 15 14 14 12 10 10 11 11 12 14 16 18 20 22 23 25 27 28 30 32 33 34 36 40 44 45 45 45
29 27 25 25 25 24 23 21 20 18 17 16 16 16 16 16 15 14 14 14 14 15 16 17 18 20 22 24 26 27 29 30 32 34 37 38 40 43 46 49 49 46 46
29 31 29 28 27 27 26 25 24 23 22 20 20 19 19 19 19 18 18 18 18 18 20 22 23 24 27 29 31 32 34 35 37 39 40 42 44 48 52 52 51 48 43
28 30 31 31 29 29 30 28 27 27 26 24 24 23 22 22 22 23 23 22 22 23 25 27 27 29 31 32 34 36 38 39 41 42 43 44 47 51 54 53 47 45 45
34 31 31 31 31 31 32 31 30 29 28 28 27 28 27 26 26 26 26 26 26 28 29 32 32 33 34 35 37 39 41 43 45 45 46 48 52 53 52 50 48 50 51
37 37 34 33 32 33 34 34 33 32 31 31 31 31 31 30 29 29 30 30 31 32 33 35 36 37 37 39 41 43 45 47 48 50 51 53 56 55 51 50 52 51 52
39 38 35 35 35 35 35 35 34 34 35 34 33 33 33 34 33 33 33 33 34 35 37 38 39 40 41 42 45 47 49 50 51 53 55 58 58 54 51 51 50 52 53
39 40 36 35 35 36 35 35 34 35 35 36 34 33 34 35 35 35 35 36 37 38 40 41 42 42 44 46 48 49 51 52 54 56 58 60 58 56 54 53 53 53 55
49 44 39 36 35 36 35 35 34 37 38 37 35 35 34 35 35 37 37 39 40 40 42 43 44 46 48 50 50 52 53 55 58 59 61 58 55 55 54 54 55 53 54
51 51 44 41 37 35 36 35 38 38 38 38 38 37 36 37 37 38 40 41 42 43 45 45 47 50 52 52 54 55 55 59 59 53 53 55 55 54 55 54 54 56 56
57 53 51 45 42 36 35 36 39 39 41 40 39 39 39 39 40 41 41 42 45 46 47 48 50 52 54 54 56 57 59 55 56 53 53 53 53 51 52 54 54 56 59
58 51 52 50 45 42 41 39 38 40 40 40 41 42 42 43 43 43 44 45 46 48 50 52 53 55 58 60 56 54 55 56 52 50 49 48 49 52 52 55 58 61 65
55 57 50 50 47 47 44 42 42 42 43 42 45 44 44 44 45 45 46 48 49 51 54 54 58 60 55 45 47 52 55 53 50 47 48 51 50 54 56 59 63 67 71
53 51 57 51 52 52 49 43 43 42 42 45 46 45 45 45 46 46 48 50 54 56 57 59 48 40 42 50 46 47 48 46 49 51 51 52 54 58 62 65 68 72 75
57 52 52 53 53 52 48 47 42 41 43 46 47 46 46 45 47 49 53 56 58 59 54 43 43 48 46 45 44 41 45 48 48 51 53 55 58 63 67 70 73 75 75
Wind_Direction
192 179 182 182 188 186 185 186 190 195 195 192 187 183 183 185 186 190 195 203 200 186 183 191 197 224 233 267 297 306 312 312 311 299 302 305 311 315 306 300 289 279 274
177 178 179 177 182 185 190 194 194 202 206 206 207 201 204 205 209 197 189 183 179 176 179 194 226 259 275 285 293 299 301 300 300 298 299 299 300 303 296 286 288 288 286
185 178 180 180 185 192 199 203 208 209 215 212 219 221 218 213 204 194 193 193 199 205 231 257 274 282 284 286 289 293 297 303 300 291 289 289 295 296 298 299 297 296 294
197 196 195 197 200 205 208 214 219 219 216 212 201 197 202 202 202 205 210 215 230 251 268 283 289 291 290 288 288 291 291 293 292 294 294 295 299 302 304 301 299 296 293
208 211 206 206 212 216 215 215 207 204 214 212 212 215 217 221 222 230 239 248 260 271 281 289 292 297 301 301 300 291 287 286 286 287 288 291 292 291 293 294 293 294 295
216 213 219 220 221 224 234 242 244 237 239 239 235 241 240 241 243 247 252 257 266 278 278 285 295 306 314 316 313 312 309 300 295 291 289 292 294 295 295 297 298 297 298
230 225 225 231 236 238 243 251 252 253 248 239 247 250 250 252 257 261 267 269 271 272 283 290 298 303 306 311 312 312 309 306 307 304 301 300 298 299 301 302 303 305 305
238 231 231 234 239 239 245 250 251 247 247 241 246 253 250 249 254 260 262 265 273 278 284 291 297 298 302 307 309 309 309 311 311 310 310 311 308 311 312 310 308 306 302
245 237 233 238 242 243 241 241 241 245 250 250 249 247 247 251 257 252 260 261 267 274 279 286 292 296 304 313 316 313 313 313 309 308 307 307 308 310 307 309 308 306 302
248 251 240 238 242 243 242 238 238 238 244 246 242 245 249 250 247 251 254 259 266 270 278 286 297 305 308 302 301 300 299 298 301 304 304 307 310 312 312 311 308 306 303
244 249 247 240 237 235 235 238 242 244 247 252 250 245 244 249 254 258 259 262 266 270 278 286 292 294 294 295 296 295 295 298 301 304 306 309 312 313 314 313 311 310 308
242 241 248 246 239 238 234 235 239 243 250 257 258 257 254 256 260 263 265 268 271 274 278 284 285 290 294 298 300 301 303 307 308 308 308 310 310 311 314 314 312 308 306
247 243 242 249 246 239 237 237 239 241 245 251 256 254 252 251 252 255 257 260 267 275 282 284 287 292 294 295 297 300 302 304 306 306 307 308 308 309 311 313 310 307 306
242 245 244 243 249 244 240 239 240 244 245 247 250 253 253 252 251 251 252 258 264 272 280 285 290 294 294 294 297 298 299 302 304 305 306 307 309 311 311 311 308 306 306
236 242 245 244 240 242 241 240 242 244 248 250 251 253 253 255 255 255 258 263 270 275 280 281 284 287 288 291 294 297 299 300 302 303 303 305 307 308 308 310 308 306 306
231 230 237 242 244 244 243 242 241 244 249 250 252 254 254 255 256 258 261 264 267 270 273 277 282 283 287 291 293 294 296 298 300 300 303 304 309 309 307 307 304 307 308
238 233 228 235 239 243 247 247 246 246 248 251 252 254 257 259 259 260 262 264 267 270 272 276 281 284 289 291 293 295 296 298 299 301 303 305 308 308 305 304 305 304 303
242 235 232 234 238 242 246 250 250 251 252 253 256 257 259 260 261 263 264 267 268 270 273 277 281 286 290 291 292 294 295 297 299 299 300 304 306 306 305 303 303 302 301
236 233 233 237 240 242 244 248 252 255 257 257 261 262 263 263 265 266 268 269 270 272 274 278 282 285 286 287 289 291 293 295 296 298 299 303 302 301 301 302 301 301 302
237 239 236 237 240 246 246 249 249 248 253 257 258 260 261 263 265 267 269 270 271 272 274 277 279 282 285 288 290 291 292 294 296 297 298 299 301 299 300 300 301 303 303
241 241 243 241 243 245 250 250 249 250 253 255 257 258 262 264 267 268 269 270 272 273 274 278 282 284 285 288 290 290 293 295 298 297 298 298 297 297 298 301 302 302 302
238 243 241 242 244 244 245 247 249 251 253 257 258 261 264 267 268 270 272 273 272 274 278 280 281 284 286 289 289 288 294 296 297 296 295 295 296 298 300 302 301 300 300
238 241 245 241 244 245 243 245 249 251 254 257 258 258 261 264 269 272 273 274 275 277 277 279 283 285 286 290 292 293 292 296 293 293 293 295 299 301 302 301 299 299 301
241 237 242 242 242 242 244 245 246 248 251 254 257 259 263 267 270 273 274 274 276 277 279 282 284 286 289 291 293 289 291 291 289 287 297 301 303 303 300 299 300 302 303
241 241 240 243 242 244 244 242 247 250 255 257 260 262 266 268 270 271 272 275 276 277 282 284 286 286 282 297 289 284 286 286 291 298 301 304 301 299 299 300 301 303 305
239 239 239 237 237 244 238 245 247 252 256 259 262 264 266 269 271 272 273 276 279 281 286 275 278 286 288 288 283 287 293 298 305 306 302 298 297 299 301 304 307 308 308
Height
5838 5838 5839 5839 5840 5841 5842 5843 5844 5845 5845 5846 5846 5847 5848 5848 5848 5849 5849 5849 5849 5850 5850 5850 5850 5849 5848 5848 5847 5846 5845 5844 5844 5843 5843 5842 5841 5841 5840 5839 5838 5838 5838
5838 5839 5839 5840 5841 5842 5842 5843 5843 5844 5845 5846 5846 5846 5847 5847 5848 5848 5848 5849 5849 5849 5850 5849 5849 5849 5848 5847 5846 5845 5843 5843 5842 5842 5842 5841 5840 5839 5839 5838 5838 5838 5837
5839 5839 5840 5840 5841 5842 5842 5843 5844 5844 5845 5845 5846 5846 5846 5847 5847 5847 5848 5848 5848 5848 5848 5848 5848 5847 5846 5845 5844 5842 5841 5840 5840 5840 5839 5839 5838 5838 5837 5836 5836 5835 5834
5840 5840 5841 5841 5842 5842 5843 5843 5843 5844 5844 5845 5845 5845 5846 5846 5847 5847 5847 5848 5848 5847 5847 5846 5845 5844 5843 5842 5841 5840 5839 5839 5838 5837 5837 5837 5837 5836 5835 5835 5833 5832 5831
5839 5840 5841 5841 5842 5842 5843 5843 5844 5844 5844 5844 5845 5845 5845 5845 5846 5846 5846 5846 5846 5845 5844 5843 5842 5842 5841 5840 5838 5838 5837 5836 5836 5836 5835 5835 5834 5833 5832 5832 5830 5829 5828
5838 5839 5840 5840 5841 5842 5843 5843 5843 5844 5844 5844 5844 5844 5844 5844 5844 5844 5844 5844 5844 5843 5842 5842 5841 5840 5839 5838 5837 5836 5835 5834 5833 5833 5833 5833 5832 5831 5830 5829 5827 5826 5825
5837 5838 5838 5839 5840 5840 5841 5842 5842 5842 5842 5843 5843 5842 5843 5843 5843 5843 5843 5842 5842 5842 5841 5841 5840 5838 5837 5837 5836 5835 5834 5833 5833 5832 5832 5831 5830 5828 5827 5826 5824 5823 5821
5835 5836 5837 5838 5838 5838 5838 5839 5840 5840 5841 5841 5841 5841 5841 5841 5841 5841 5842 5841 5841 5840 5840 5839 5838 5836 5836 5835 5835 5833 5833 5832 5831 5830 5829 5828 5827 5826 5825 5823 5821 5818 5816
5832 5833 5834 5835 5836 5836 5836 5836 5837 5838 5839 5839 5839 5839 5840 5840 5840 5840 5840 5840 5839 5838 5837 5836 5835 5834 5834 5833 5832 5831 5831 5829 5828 5827 5827 5825 5824 5823 5820 5819 5817 5813 5810
5829 5830 5831 5831 5833 5833 5834 5834 5834 5835 5836 5837 5837 5838 5838 5838 5838 5838 5838 5837 5836 5836 5835 5834 5833 5833 5832 5831 5830 5829 5828 5827 5826 5825 5823 5822 5821 5819 5817 5815 5812 5809 5805
5825 5827 5828 5828 5829 5830 5831 5832 5833 5833 5834 5834 5835 5835 5835 5836 5836 5836 5835 5835 5834 5834 5834 5833 5832 5831 5830 5829 5827 5826 5825 5823 5822 5820 5819 5818 5816 5813 5811 5808 5805 5801 5798
5820 5822 5823 5824 5826 5827 5829 5829 5830 5831 5832 5833 5833 5833 5834 5834 5834 5834 5834 5834 5833 5833 5832 5831 5830 5828 5827 5825 5823 5822 5821 5820 5819 5816 5814 5812 5809 5806 5803 5800 5797 5794 5790
5815 5818 5819 5820 5822 5824 5825 5827 5827 5828 5829 5830 5830 5830 5830 5831 5831 5832 5832 5831 5831 5830 5829 5828 5826 5825 5823 5821 5819 5818 5816 5814 5813 5810 5808 5805 5802 5799 5796 5793 5789 5786 5782
5809 5812 5814 5815 5818 5820 5821 5823 5824 5825 5826 5826 5827 5827 5828 5828 5829 5828 5828 5828 5827 5826 5825 5824 5822 5821 5818 5816 5815 5813 5811 5809 5807 5804 5802 5799 5796 5792 5788 5785 5781 5777 5773
5803 5806 5809 5811 5812 5814 5816 5818 5820 5821 5822 5823 5823 5823 5824 5825 5825 5825 5824 5824 5824 5822 5820 5818 5818 5815 5813 5811 5809 5807 5805 5802 5800 5797 5795 5792 5788 5785 5779 5775 5772 5768 5765
5794 5797 5801 5804 5807 5809 5811 5813 5814 5816 5817 5818 5819 5819 5819 5820 5820 5820 5820 5819 5818 5817 5815 5812 5812 5811 5809 5806 5804 5801 5799 5796 5793 5789 5787 5783 5779 5776 5771 5767 5763 5760 5756
5790 5790 5792 5797 5800 5803 5805 5807 5809 5810 5811 5812 5813 5814 5814 5815 5815 5815 5814 5813 5813 5811 5809 5807 5806 5804 5802 5800 5798 5795 5791 5788 5785 5781 5778 5774 5770 5766 5762 5758 5754 5750 5746
5784 5786 5787 5789 5793 5796 5799 5802 5804 5806 5805 5806 5807 5808 5809 5809 5809 5809 5808 5808 5807 5805 5803 5801 5799 5797 5796 5793 5790 5787 5783 5780 5778 5774 5770 5766 5762 5757 5753 5748 5744 5740 5736
5776 5779 5781 5783 5788 5789 5791 5795 5798 5800 5800 5800 5801 5802 5803 5803 5804 5803 5803 5802 5800 5799 5797 5795 5793 5791 5788 5785 5783 5780 5776 5773 5769 5765 5761 5757 5752 5748 5744 5739 5735 5730 5726
5767 5771 5774 5778 5780 5784 5786 5788 5792 5792 5793 5794 5795 5795 5796 5796 5797 5797 5796 5795 5793 5792 5789 5788 5786 5783 5781 5778 5774 5771 5768 5764 5760 5755 5751 5747 5742 5738 5733 5728 5724 5719 5715
5759 5764 5767 5770 5773 5777 5781 5784 5784 5785 5786 5787 5788 5788 5788 5789 5789 5789 5788 5787 5786 5784 5782 5780 5778 5776 5772 5769 5766 5762 5758 5754 5749 5744 5741 5736 5732 5727 5722 5718 5713 5708 5703
5750 5754 5759 5763 5766 5770 5773 5775 5775 5778 5779 5780 5782 5782 5782 5781 5781 5781 5780 5779 5777 5776 5774 5772 5769 5766 5763 5759 5755 5752 5748 5743 5739 5734 5729 5725 5721 5716 5711 5707 5701 5695 5690
5741 5746 5749 5754 5758 5762 5764 5766 5769 5770 5772 5773 5774 5773 5773 5773 5773 5773 5772 5771 5769 5767 5765 5762 5760 5757 5753 5749 5745 5741 5737 5733 5729 5722 5719 5714 5710 5706 5701 5694 5689 5683 5677
5730 5736 5739 5744 5750 5753 5757 5759 5760 5761 5763 5765 5765 5766 5766 5766 5765 5765 5763 5761 5759 5757 5755 5753 5749 5746 5742 5738 5734 5730 5725 5722 5718 5715 5709 5704 5700 5695 5689 5683 5676 5668 5661
5720 5726 5731 5734 5739 5743 5748 5750 5751 5753 5757 5757 5758 5759 5759 5758 5757 5755 5753 5751 5748 5746 5744 5741 5738 5734 5732 5729 5724 5719 5715 5710 5705 5700 5698 5694 5687 5680 5674 5667 5660 5653 5645
5709 5715 5720 5727 5730 5736 5738 5741 5743 5747 5748 5749 5750 5750 5750 5748 5747 5746 5743 5741 5738 5736 5734 5731 5728 5726 5721 5717 5713 5708 5703 5699 5694 5689 5684 5679 5672 5665 5658 5650 5644 5638 5631